PWSweather.com
Personal Weather Stations
Station Observations
WODONGA
Wodonga, WodongaAU 3690

WodongaWodongaAU 3690

Lat: -36.121, Lon: 146.87

Elevation: 541

Station Type: Weather Station

http://www.wodongaweather.net

Latest ConditionsUpdated 5:45:03 AM GMT+10:10 Wednesday, Dec 7, 2016
Currently Today's Max Today's Min Today's Average
Temperature 53.6°F12.0°C 59.7°F15.4°C 52.5°F11.4°C 55.7°F13.2°C
Dew Point 47.6°F8.7°C 49.3°F9.6°C 46.5°F8.1°C 48.0°F8.9°C
Winds 0.7 mph SSE1.1 kmh SSE 2.1 mph S3.4 kmh S - 1.4 mph 2.3 kmh
Wind Gusts 1.6 mph2.6 kmh 3.1 mph5.0 kmh - -
Humidity 80% 81% 68% 75%
Pressure 29.95 in1014.2 mb 29.96 in1014.6 mb 29.89 in1012.2 mb -
Hour Temp Dew Point Humidity Winds Wind Gusts Pressure Precip Precip Rate Daily Precip Total
05:45 AM 53.6°F12.0°C 47.6°F8.7°C 80% 0.7 mph SSE1.1 kmh SSE 1.6 mph2.6 kmh 29.95 in1014.2 mb 0.00 in0.0 mm 0.00 in0.0 mm 0.00 in0.0 mm
05:40 AM 53.4°F11.9°C 47.4°F8.6°C 80% 0.9 mph S1.4 kmh S 1.6 mph2.6 kmh 29.96 in1014.6 mb 0.00 in0.0 mm 0.00 in0.0 mm 0.00 in0.0 mm
05:35 AM 53.1°F11.7°C 47.4°F8.6°C 81% 1.5 mph S2.4 kmh S 2.2 mph3.5 kmh 29.95 in1014.2 mb 0.00 in0.0 mm 0.00 in0.0 mm 0.00 in0.0 mm
05:30 AM 53.2°F11.8°C 47.2°F8.4°C 80% 1.7 mph S2.7 kmh S 2.2 mph3.5 kmh 29.95 in1014.2 mb 0.00 in0.0 mm 0.00 in0.0 mm 0.00 in0.0 mm
05:25 AM 53.1°F11.7°C 47.1°F8.4°C 80% 1.7 mph S2.7 kmh S 2.2 mph3.5 kmh 29.95 in1014.2 mb 0.00 in0.0 mm 0.00 in0.0 mm 0.00 in0.0 mm
05:20 AM 52.9°F11.6°C 46.9°F8.3°C 80% 1.7 mph S2.7 kmh S 2.2 mph3.5 kmh 29.94 in1013.9 mb 0.00 in0.0 mm 0.00 in0.0 mm 0.00 in0.0 mm
05:15 AM 52.5°F11.4°C 46.9°F8.3°C 81% 1.6 mph S2.6 kmh S 2.2 mph3.5 kmh 29.94 in1013.9 mb 0.00 in0.0 mm 0.00 in0.0 mm 0.00 in0.0 mm
05:10 AM 52.5°F11.4°C 46.5°F8.1°C 80% 1.8 mph S2.9 kmh S 2.2 mph3.5 kmh 29.94 in1013.9 mb 0.00 in0.0 mm 0.00 in0.0 mm 0.00 in0.0 mm
05:05 AM 52.7°F11.5°C 46.7°F8.2°C 80% 1.8 mph S2.9 kmh S 2.2 mph3.5 kmh 29.94 in1013.9 mb 0.00 in0.0 mm 0.00 in0.0 mm 0.00 in0.0 mm
05:00 AM 52.9°F11.6°C 46.9°F8.3°C 80% 1.9 mph S3.1 kmh S 2.2 mph3.5 kmh 29.94 in1013.9 mb 0.00 in0.0 mm 0.00 in0.0 mm 0.00 in0.0 mm
04:55 AM 53.1°F11.7°C 47.1°F8.4°C 80% 1.8 mph S2.9 kmh S 2.2 mph3.5 kmh 29.93 in1013.5 mb 0.00 in0.0 mm 0.00 in0.0 mm 0.00 in0.0 mm
04:50 AM 52.9°F11.6°C 46.9°F8.3°C 80% 1.4 mph S2.3 kmh S 2.2 mph3.5 kmh 29.93 in1013.5 mb 0.00 in0.0 mm 0.00 in0.0 mm 0.00 in0.0 mm
04:45 AM 52.9°F11.6°C 46.9°F8.3°C 80% 1.5 mph S2.4 kmh S 2.2 mph3.5 kmh 29.93 in1013.5 mb 0.00 in0.0 mm 0.00 in0.0 mm 0.00 in0.0 mm
04:40 AM 53.1°F11.7°C 46.7°F8.2°C 79% 1.7 mph S2.7 kmh S 2.2 mph3.5 kmh 29.93 in1013.5 mb 0.00 in0.0 mm 0.00 in0.0 mm 0.00 in0.0 mm
04:35 AM 53.2°F11.8°C 46.9°F8.3°C 79% 1.6 mph S2.6 kmh S 2.2 mph3.5 kmh 29.93 in1013.5 mb 0.00 in0.0 mm 0.00 in0.0 mm 0.00 in0.0 mm
04:30 AM 53.6°F12.0°C 47.3°F8.5°C 79% 1.6 mph S2.6 kmh S 2.2 mph3.5 kmh 29.93 in1013.5 mb 0.00 in0.0 mm 0.00 in0.0 mm 0.00 in0.0 mm
04:25 AM 53.4°F11.9°C 47.1°F8.4°C 79% 1.6 mph S2.6 kmh S 1.6 mph2.6 kmh 29.93 in1013.5 mb 0.00 in0.0 mm 0.00 in0.0 mm 0.00 in0.0 mm
04:20 AM 53.4°F11.9°C 47.1°F8.4°C 79% 1.7 mph S2.7 kmh S 2.2 mph3.5 kmh 29.93 in1013.5 mb 0.00 in0.0 mm 0.00 in0.0 mm 0.00 in0.0 mm
04:15 AM 53.4°F11.9°C 47.1°F8.4°C 79% 1.6 mph S2.6 kmh S 2.2 mph3.5 kmh 29.93 in1013.5 mb 0.00 in0.0 mm 0.00 in0.0 mm 0.00 in0.0 mm
04:10 AM 53.2°F11.8°C 46.9°F8.3°C 79% 1.6 mph S2.6 kmh S 2.2 mph3.5 kmh 29.92 in1013.2 mb 0.00 in0.0 mm 0.00 in0.0 mm 0.00 in0.0 mm
04:05 AM 53.8°F12.1°C 47.1°F8.4°C 78% 1.7 mph S2.7 kmh S 2.2 mph3.5 kmh 29.92 in1013.2 mb 0.00 in0.0 mm 0.00 in0.0 mm 0.00 in0.0 mm
04:00 AM 54.0°F12.2°C 47.3°F8.5°C 78% 1.6 mph S2.6 kmh S 2.2 mph3.5 kmh 29.91 in1012.9 mb 0.00 in0.0 mm 0.00 in0.0 mm 0.00 in0.0 mm
03:55 AM 54.0°F12.2°C 47.3°F8.5°C 78% 1.6 mph S2.6 kmh S 2.2 mph3.5 kmh 29.91 in1012.9 mb 0.00 in0.0 mm 0.00 in0.0 mm 0.00 in0.0 mm
03:50 AM 54.0°F12.2°C 47.3°F8.5°C 78% 1.2 mph S1.9 kmh S 1.6 mph2.6 kmh 29.91 in1012.9 mb 0.00 in0.0 mm 0.00 in0.0 mm 0.00 in0.0 mm
03:45 AM 54.0°F12.2°C 47.3°F8.5°C 78% 1.2 mph S1.9 kmh S 2.2 mph3.5 kmh 29.91 in1012.9 mb 0.00 in0.0 mm 0.00 in0.0 mm 0.00 in0.0 mm
03:40 AM 54.1°F12.3°C 47.4°F8.6°C 78% 1.5 mph S2.4 kmh S 2.2 mph3.5 kmh 29.91 in1012.9 mb 0.00 in0.0 mm 0.00 in0.0 mm 0.00 in0.0 mm
03:35 AM 54.1°F12.3°C 47.4°F8.6°C 78% 1.6 mph S2.6 kmh S 2.2 mph3.5 kmh 29.91 in1012.9 mb 0.00 in0.0 mm 0.00 in0.0 mm 0.00 in0.0 mm
03:30 AM 54.3°F12.4°C 47.6°F8.7°C 78% 1.9 mph S3.1 kmh S 2.2 mph3.5 kmh 29.90 in1012.5 mb 0.00 in0.0 mm 0.00 in0.0 mm 0.00 in0.0 mm
03:25 AM 54.5°F12.5°C 47.4°F8.6°C 77% 2.1 mph S3.4 kmh S 2.2 mph3.5 kmh 29.91 in1012.9 mb 0.00 in0.0 mm 0.00 in0.0 mm 0.00 in0.0 mm
03:20 AM 54.7°F12.6°C 47.6°F8.7°C 77% 2.0 mph S3.2 kmh S 2.2 mph3.5 kmh 29.90 in1012.5 mb 0.00 in0.0 mm 0.00 in0.0 mm 0.00 in0.0 mm
03:15 AM 54.9°F12.7°C 47.8°F8.8°C 77% 1.9 mph S3.1 kmh S 2.2 mph3.5 kmh 29.90 in1012.5 mb 0.00 in0.0 mm 0.00 in0.0 mm 0.00 in0.0 mm
03:10 AM 55.0°F12.8°C 48.0°F8.9°C 77% 1.6 mph S2.6 kmh S 2.2 mph3.5 kmh 29.90 in1012.5 mb 0.00 in0.0 mm 0.00 in0.0 mm 0.00 in0.0 mm
03:05 AM 55.2°F12.9°C 47.8°F8.8°C 76% 1.2 mph SSW1.9 kmh SSW 1.6 mph2.6 kmh 29.90 in1012.5 mb 0.00 in0.0 mm 0.00 in0.0 mm 0.00 in0.0 mm
03:00 AM 55.2°F12.9°C 47.8°F8.8°C 76% 1.3 mph S2.1 kmh S 2.2 mph3.5 kmh 29.89 in1012.2 mb 0.00 in0.0 mm 0.00 in0.0 mm 0.00 in0.0 mm
02:55 AM 55.6°F13.1°C 48.1°F8.9°C 76% 1.7 mph S2.7 kmh S 2.2 mph3.5 kmh 29.89 in1012.2 mb 0.00 in0.0 mm 0.00 in0.0 mm 0.00 in0.0 mm
02:50 AM 55.4°F13.0°C 48.0°F8.9°C 76% 1.5 mph S2.4 kmh S 2.2 mph3.5 kmh 29.90 in1012.5 mb 0.00 in0.0 mm 0.00 in0.0 mm 0.00 in0.0 mm
02:45 AM 55.4°F13.0°C 48.0°F8.9°C 76% 1.6 mph S2.6 kmh S 2.2 mph3.5 kmh 29.89 in1012.2 mb 0.00 in0.0 mm 0.00 in0.0 mm 0.00 in0.0 mm
02:40 AM 55.6°F13.1°C 48.1°F8.9°C 76% 1.8 mph S2.9 kmh S 2.2 mph3.5 kmh 29.89 in1012.2 mb 0.00 in0.0 mm 0.00 in0.0 mm 0.00 in0.0 mm
02:35 AM 55.4°F13.0°C 48.0°F8.9°C 76% 1.7 mph S2.7 kmh S 2.2 mph3.5 kmh 29.89 in1012.2 mb 0.00 in0.0 mm 0.00 in0.0 mm 0.00 in0.0 mm
02:30 AM 55.6°F13.1°C 48.1°F8.9°C 76% 1.9 mph S3.1 kmh S 2.2 mph3.5 kmh 29.89 in1012.2 mb 0.00 in0.0 mm 0.00 in0.0 mm 0.00 in0.0 mm
02:25 AM 55.8°F13.2°C 48.0°F8.9°C 75% 1.7 mph S2.7 kmh S 2.2 mph3.5 kmh 29.89 in1012.2 mb 0.00 in0.0 mm 0.00 in0.0 mm 0.00 in0.0 mm
02:20 AM 55.9°F13.3°C 48.1°F8.9°C 75% 1.5 mph S2.4 kmh S 2.2 mph3.5 kmh 29.89 in1012.2 mb 0.00 in0.0 mm 0.00 in0.0 mm 0.00 in0.0 mm
02:15 AM 56.3°F13.5°C 48.1°F8.9°C 74% 1.6 mph S2.6 kmh S 2.2 mph3.5 kmh 29.90 in1012.5 mb 0.00 in0.0 mm 0.00 in0.0 mm 0.00 in0.0 mm
02:10 AM 56.5°F13.6°C 48.3°F9.1°C 74% 1.3 mph SSE2.1 kmh SSE 1.6 mph2.6 kmh 29.90 in1012.5 mb 0.00 in0.0 mm 0.00 in0.0 mm 0.00 in0.0 mm
02:05 AM 56.7°F13.7°C 48.5°F9.2°C 74% 0.9 mph S1.4 kmh S 1.6 mph2.6 kmh 29.89 in1012.2 mb 0.00 in0.0 mm 0.00 in0.0 mm 0.00 in0.0 mm
02:00 AM 56.7°F13.7°C 48.5°F9.2°C 74% 1.3 mph SE2.1 kmh SE 2.2 mph3.5 kmh 29.90 in1012.5 mb 0.00 in0.0 mm 0.00 in0.0 mm 0.00 in0.0 mm
01:55 AM 56.7°F13.7°C 48.5°F9.2°C 74% 1.9 mph SSE3.1 kmh SSE 3.1 mph5.0 kmh 29.90 in1012.5 mb 0.00 in0.0 mm 0.00 in0.0 mm 0.00 in0.0 mm
01:50 AM 56.8°F13.8°C 48.7°F9.3°C 74% 1.8 mph S2.9 kmh S 3.1 mph5.0 kmh 29.91 in1012.9 mb 0.00 in0.0 mm 0.00 in0.0 mm 0.00 in0.0 mm
01:45 AM 57.0°F13.9°C 48.5°F9.2°C 73% 1.9 mph S3.1 kmh S 3.1 mph5.0 kmh 29.91 in1012.9 mb 0.00 in0.0 mm 0.00 in0.0 mm 0.00 in0.0 mm
01:40 AM 57.6°F14.2°C 49.0°F9.4°C 73% 1.8 mph S2.9 kmh S 3.1 mph5.0 kmh 29.91 in1012.9 mb 0.00 in0.0 mm 0.00 in0.0 mm 0.00 in0.0 mm
01:35 AM 57.7°F14.3°C 48.8°F9.3°C 72% 1.4 mph SSE2.3 kmh SSE 2.2 mph3.5 kmh 29.91 in1012.9 mb 0.00 in0.0 mm 0.00 in0.0 mm 0.00 in0.0 mm
01:30 AM 57.9°F14.4°C 49.0°F9.4°C 72% 1.3 mph SE2.1 kmh SE 2.2 mph3.5 kmh 29.91 in1012.9 mb 0.00 in0.0 mm 0.00 in0.0 mm 0.00 in0.0 mm
01:25 AM 57.7°F14.3°C 49.2°F9.6°C 73% 1.1 mph SW1.8 kmh SW 2.2 mph3.5 kmh 29.91 in1012.9 mb 0.00 in0.0 mm 0.00 in0.0 mm 0.00 in0.0 mm
01:20 AM 57.7°F14.3°C 48.8°F9.3°C 72% 0.6 mph W1.0 kmh W 1.6 mph2.6 kmh 29.91 in1012.9 mb 0.00 in0.0 mm 0.00 in0.0 mm 0.00 in0.0 mm
01:15 AM 58.3°F14.6°C 48.9°F9.4°C 71% Calm Calm -- 29.91 in1012.9 mb 0.00 in0.0 mm 0.00 in0.0 mm 0.00 in0.0 mm
01:10 AM 58.3°F14.6°C 48.9°F9.4°C 71% Calm Calm -- 29.91 in1012.9 mb 0.00 in0.0 mm 0.00 in0.0 mm 0.00 in0.0 mm
01:05 AM 58.5°F14.7°C 49.1°F9.5°C 71% 0.1 mph S0.2 kmh S 0.7 mph1.1 kmh 29.91 in1012.9 mb 0.00 in0.0 mm 0.00 in0.0 mm 0.00 in0.0 mm
01:00 AM 58.6°F14.8°C 49.3°F9.6°C 71% 0.3 mph S0.5 kmh S 0.7 mph1.1 kmh 29.91 in1012.9 mb 0.00 in0.0 mm 0.00 in0.0 mm 0.00 in0.0 mm
12:55 AM 58.5°F14.7°C 49.1°F9.5°C 71% 0.6 mph S1.0 kmh S 1.6 mph2.6 kmh 29.91 in1012.9 mb 0.00 in0.0 mm 0.00 in0.0 mm 0.00 in0.0 mm
12:50 AM 58.6°F14.8°C 48.9°F9.4°C 70% 0.7 mph S1.1 kmh S 1.6 mph2.6 kmh 29.91 in1012.9 mb 0.00 in0.0 mm 0.00 in0.0 mm 0.00 in0.0 mm
12:45 AM 58.6°F14.8°C 48.9°F9.4°C 70% 0.8 mph S1.3 kmh S 1.6 mph2.6 kmh 29.90 in1012.5 mb 0.00 in0.0 mm 0.00 in0.0 mm 0.00 in0.0 mm
12:40 AM 59.0°F15.0°C 49.2°F9.6°C 70% 1.5 mph S2.4 kmh S 2.2 mph3.5 kmh 29.91 in1012.9 mb 0.00 in0.0 mm 0.00 in0.0 mm 0.00 in0.0 mm
12:35 AM 59.0°F15.0°C 48.9°F9.4°C 69% 1.3 mph S2.1 kmh S 2.2 mph3.5 kmh 29.91 in1012.9 mb 0.00 in0.0 mm 0.00 in0.0 mm 0.00 in0.0 mm
12:30 AM 59.0°F15.0°C 48.9°F9.4°C 69% 0.9 mph S1.4 kmh S 1.6 mph2.6 kmh 29.91 in1012.9 mb 0.00 in0.0 mm 0.00 in0.0 mm 0.00 in0.0 mm
12:25 AM 59.2°F15.1°C 49.0°F9.4°C 69% 1.6 mph SSE2.6 kmh SSE 2.2 mph3.5 kmh 29.91 in1012.9 mb 0.00 in0.0 mm 0.00 in0.0 mm 0.00 in0.0 mm
12:20 AM 59.2°F15.1°C 49.0°F9.4°C 69% 1.7 mph SE2.7 kmh SE 2.2 mph3.5 kmh 29.91 in1012.9 mb 0.00 in0.0 mm 0.00 in0.0 mm 0.00 in0.0 mm
12:15 AM 59.0°F15.0°C 48.9°F9.4°C 69% 1.2 mph N1.9 kmh N 2.2 mph3.5 kmh 29.91 in1012.9 mb 0.00 in0.0 mm 0.00 in0.0 mm 0.00 in0.0 mm
12:10 AM 59.2°F15.1°C 48.6°F9.2°C 68% 0.7 mph N1.1 kmh N 2.2 mph3.5 kmh 29.91 in1012.9 mb 0.00 in0.0 mm 0.00 in0.0 mm 0.00 in0.0 mm
12:05 AM 59.4°F15.2°C 48.8°F9.3°C 68% 1.0 mph S1.6 kmh S 2.2 mph3.5 kmh 29.91 in1012.9 mb 0.00 in0.0 mm 0.00 in0.0 mm 0.00 in0.0 mm
12:00 AM 59.7°F15.4°C 49.2°F9.6°C 68% 1.8 mph S2.9 kmh S 2.2 mph3.5 kmh 29.91 in1012.9 mb 0.00 in0.0 mm 0.00 in0.0 mm 0.00 in0.0 mm